Date,TemperatureHighF,TemperatureAvgF,TemperatureLowF,DewpointHighF,DewpointAvgF,DewpointLowF,HumidityHigh,HumidityAvg,HumidityLow,PressureMaxIn,PressureMinIn,WindSpeedMaxMPH,WindSpeedAvgMPH,GustSpeedMaxMPH,PrecipitationSumIn
2013-2-1,30.6,26.6,20.7,17.6,9.7,3.7,62,36,21,30.28,29.84,7,3,14,0.01
2013-2-2,29.8,22.6,15.6,19.0,8.5,3.6,74,42,24,30.32,30.04,6,2,11,0.00
2013-2-3,32.5,25.5,21.6,23.2,19.4,16.3,80,70,54,30.04,29.82,4,0,5,0.05
2013-2-4,31.3,24.3,18.7,20.0,11.7,0.0,70,44,32,30.04,29.86,916,2,916,0.01
2013-2-5,32.2,27.4,26.4,27.5,22.7,0.0,84,69,62,29.97,29.90,916,0,916,0.00
2013-2-6,40.3,31.7,26.1,27.7,23.3,14.2,86,63,43,30.36,29.94,8,1,13,0.01
2013-2-7,34.7,28.3,22.3,22.9,16.6,12.5,60,50,35,30.49,30.29,4,1,7,0.01
2013-2-8,36.0,33.1,30.7,32.2,29.6,23.4,89,82,62,30.28,29.70,6,2,9,0.29
2013-2-9,35.4,27.5,19.6,29.4,18.1,8.0,89,60,32,30.38,29.79,8,1,17,0.11
2013-2-10,45.0,26.6,12.4,21.3,12.9,4.6,62,45,21,30.49,30.32,3,1,6,0.01
2013-2-11,47.5,38.7,30.0,46.5,35.8,20.8,95,86,56,30.32,29.68,4,1,8,0.34
2013-2-12,47.5,39.9,29.3,39.9,28.4,22.0,95,54,38,30.01,29.79,9,2,13,0.01
2013-2-13,45.7,34.7,25.5,30.9,26.2,19.8,85,63,44,29.99,29.70,3,1,5,0.00
2013-2-14,48.6,37.0,28.9,35.6,30.3,26.2,88,71,47,30.02,29.74,4,0,6,0.35
2013-2-15,58.6,42.3,31.3,39.3,32.4,26.5,84,62,34,30.04,29.93,6,1,9,0.02
2013-2-16,38.1,33.9,29.3,31.1,25.7,14.7,85,64,41,30.00,29.78,8,2,14,0.05
2013-2-17,33.4,26.9,19.2,15.0,6.5,-0.4,42,28,22,30.08,29.74,11,4,21,0.04
2013-2-18,37.9,25.4,17.4,16.0,6.5,-1.6,45,30,21,30.31,30.08,9,2,13,0.01
2013-2-19,45.7,36.7,25.5,41.7,29.6,13.4,92,69,41,30.21,29.72,5,1,11,0.27
2013-2-20,34.9,29.1,23.9,26.2,15.0,8.7,61,43,30,30.05,29.79,9,3,18,0.01
2013-2-21,36.9,28.6,23.2,17.9,14.1,10.2,51,42,29,30.32,30.04,11,3,19,0.01
2013-2-22,38.1,30.0,21.0,27.9,20.4,12.2,73,57,46,30.41,30.25,4,1,8,0.00
2013-2-23,44.8,38.9,32.7,43.4,37.1,28.1,95,91,73,30.27,29.82,4,1,6,0.19
2013-2-24,47.3,37.6,30.2,40.5,30.8,20.7,95,70,50,30.03,29.79,11,2,20,0.06
2013-2-25,46.9,35.0,27.0,31.8,24.8,19.0,67,56,42,30.25,30.04,8,1,10,0.01
2013-2-26,46.2,36.3,27.9,34.7,29.4,21.3,89,69,49,30.26,29.82,8,2,12,0.34
2013-2-27,53.6,44.4,36.9,46.8,40.1,34.7,95,81,59,29.83,29.53,8,2,11,0.22
2013-2-28,46.6,41.6,34.5,99.9,33.2,29.0,75,62,12,29.68,29.60,5,1,8,0.01